Faleolo (NSFA)

Aerodrome — Elev 58
Western Samoa
S013.49.46.800 W171.59.49.800
Loading chart...

Current Weather

NSFA 210800Z 00000KT 9999 SCT020 BKN050 26/24 Q1014

Published 45 minutes ago

Airport Activity

Loading chart...
Loading chart...

Positions

CallsignRadio Name / Freq / Voice Room / TypeFrequencyVoice RoomType
NZZO_FSS Auckland Radio
128.900
nzzo_fss
128.900nzzo_fss
NSFA_CTR Faleolo Control
123.800
nsfa_ctr
123.800nsfa_ctr
NSFA_APP Faleolo Approach
126.900
nsfa_app
126.900nsfa_app
NSFA_TWR Faleolo Tower
118.100
nsfa_twr
118.100nsfa_twr
NSFA_GND Faleolo Ground
121.900
nsfa_gnd
121.900nsfa_gnd
UNICOM NZZO UNICOM
122.800
unicom_nzzo
122.800unicom_nzzo